Weather History for Ahoskie, NC

Change the Weather History Date:

Wednesday, March 26, 2014

  Actual Average (KEMV) Record (KEMV)
Temperature  
Mean Temperature 34 °F -  
Max Temperature 43 °F 65 °F 80 °F (2003)
Min Temperature 25 °F 37 °F 23 °F (1985)
Degree Days  
Heating Degree Days 30    
Moisture  
Dew Point 20 °F    
Average Humidity 58    
Maximum Humidity 94    
Minimum Humidity 27    
Precipitation  
Precipitation 0.00 in - - ()
Sea Level Pressure  
Sea Level Pressure 30.13 in    
Wind  
Wind Speed 5 mph (NW)    
Max Wind Speed 13 mph    
Max Gust Speed 24 mph    
Visibility 10 miles    
Events      
Averages and records for this station are not official NWS values.
T = Trace of Precipitation, MM = Missing Value Source: NWS Daily Summary

Daily Weather History Graph

Daily Weather History Graph

Search for Another Location

Airport:

Trip Planner

Search our weather history database for the weather conditions in past years. The results will help you decide how hot, cold, wet, or windy it might be!

Date:

Astronomy

Mar. 26, 2014 Rise Set
Actual Time 7:03 AM EDT 7:25 PM EDT
Civil Twilight 6:37 AM EDT 7:51 PM EDT
Nautical Twilight 6:07 AM EDT 8:21 PM EDT
Astronomical Twilight 5:36 AM EDT 8:52 PM EDT
Moon 4:03 AM EDT (3/26) 3:08 PM EDT (3/26)
Length of Visible Light 13h 13m
Length of Day
12h 22m
Waning Crescent, 22% of the Moon is Illuminated
Mar 26
Waning Crescent
Mar 30
New
Apr 7
First Quarter
Apr 15
Full
Apr 22
Last Quarter

Hourly Weather History & Observations

Time (EDT) Temp. Windchill Dew Point Humidity Pressure Visibility Wind Dir Wind Speed Gust Speed Precip Events Conditions
12:10 AM 34.7 °F 28.1 °F 32.0 °F 90% 29.88 in 10.0 mi NNW 8.1 mph - N/A   Overcast
12:30 AM 34.7 °F 29.6 °F 31.6 °F 89% 29.89 in 10.0 mi NNW 5.8 mph - N/A   Overcast
12:50 AM 34.0 °F 28.8 °F 31.1 °F 89% 29.90 in 10.0 mi NNW 5.8 mph - N/A   Mostly Cloudy
1:10 AM 33.8 °F 27.7 °F 31.1 °F 90% 29.91 in 10.0 mi NNW 6.9 mph - N/A   Mostly Cloudy
1:30 AM 33.8 °F 27.7 °F 30.6 °F 88% 29.91 in 10.0 mi NW 6.9 mph - N/A   Mostly Cloudy
1:50 AM 32.9 °F 29.8 °F 30.2 °F 90% 29.92 in 10.0 mi NNW 3.5 mph - N/A   Scattered Clouds
2:10 AM 32.0 °F 27.5 °F 30.0 °F 92% 29.93 in 10.0 mi WNW 4.6 mph - N/A   Clear
2:30 AM 32.0 °F 28.7 °F 29.5 °F 90% 29.94 in 10.0 mi NW 3.5 mph - N/A   Clear
2:50 AM 31.6 °F - 29.3 °F 91% 29.95 in 10.0 mi Calm Calm - N/A   Clear
3:10 AM 31.5 °F - 29.1 °F 91% 29.95 in 10.0 mi Calm Calm - N/A   Clear
3:30 AM 31.1 °F 27.7 °F 29.1 °F 92% 29.95 in 10.0 mi NW 3.5 mph - N/A   Clear
3:50 AM 30.9 °F - 28.9 °F 92% 29.95 in 10.0 mi Calm Calm - N/A   Clear
4:10 AM 30.7 °F 27.3 °F 28.9 °F 93% 29.96 in 10.0 mi WNW 3.5 mph - N/A   Clear
4:30 AM 30.7 °F - 28.9 °F 93% 29.96 in 10.0 mi Calm Calm - N/A   Scattered Clouds
4:50 AM 30.4 °F - 28.9 °F 94% 29.98 in 10.0 mi Calm Calm - N/A   Scattered Clouds
5:10 AM 30.9 °F 27.5 °F 28.4 °F 90% 29.99 in 10.0 mi West 3.5 mph - N/A   Clear
5:30 AM 31.6 °F 28.3 °F 27.1 °F 83% 30.00 in 10.0 mi NW 3.5 mph - N/A   Clear
5:50 AM 31.6 °F - 26.4 °F 81% 30.01 in 10.0 mi Calm Calm - N/A   Scattered Clouds
6:10 AM 31.6 °F 27.0 °F 25.9 °F 79% 30.03 in 10.0 mi NW 4.6 mph - N/A   Mostly Cloudy
6:30 AM 31.3 °F 24.7 °F 24.8 °F 77% 30.04 in 10.0 mi NW 6.9 mph - N/A   Scattered Clouds
6:50 AM 31.1 °F 26.4 °F 24.6 °F 77% - 10.0 mi NW 4.6 mph - N/A   Clear
7:10 AM 30.6 °F 25.8 °F 24.4 °F 78% 30.06 in 10.0 mi WNW 4.6 mph - N/A   Clear
7:30 AM 30.7 °F 27.3 °F 24.3 °F 77% 30.08 in 10.0 mi NW 3.5 mph - N/A   Clear
7:50 AM 31.1 °F 27.7 °F 24.4 °F 76% 30.09 in 10.0 mi NW 3.5 mph - N/A   Clear
8:10 AM 31.8 °F 25.4 °F 23.9 °F 73% 30.10 in 10.0 mi NW 6.9 mph - N/A   Clear
8:30 AM 32.0 °F 28.7 °F 22.3 °F 67% 30.12 in 10.0 mi WNW 3.5 mph - N/A   Clear
8:50 AM 32.9 °F 26.7 °F 21.4 °F 63% 30.13 in 10.0 mi NW 6.9 mph - N/A   Clear
9:10 AM 33.4 °F 24.3 °F 19.2 °F 56% 30.14 in 10.0 mi NW 12.7 mph 23.0 mph N/A   Clear
9:30 AM 34.3 °F 26.5 °F 18.7 °F 53% 30.15 in 10.0 mi NNW 10.4 mph 18.4 mph N/A   Clear
9:50 AM 34.7 °F 26.4 °F 16.2 °F 47% 30.17 in 10.0 mi NW 11.5 mph 16.1 mph N/A   Clear
10:10 AM 35.1 °F 30.1 °F 15.3 °F 44% 30.17 in 10.0 mi NW 5.8 mph 24.2 mph N/A   Scattered Clouds
10:30 AM 35.6 °F 27.1 °F 13.6 °F 41% 30.18 in 10.0 mi NNW 12.7 mph 21.9 mph N/A   Clear
10:50 AM 36.5 °F 29.7 °F 14.7 °F 41% 30.18 in 10.0 mi WNW 9.2 mph 20.7 mph N/A   Clear
11:10 AM 36.5 °F 28.7 °F 13.5 °F 39% 30.18 in 10.0 mi NNW 11.5 mph 17.3 mph N/A   Clear
11:30 AM 36.7 °F 31.2 °F 12.7 °F 37% 30.18 in 10.0 mi NW 6.9 mph 16.1 mph N/A   Clear
11:50 AM 37.6 °F 31.6 °F 13.6 °F 38% 30.19 in 10.0 mi NW 8.1 mph 17.3 mph N/A   Clear
12:10 PM 38.3 °F 32.5 °F 14.2 °F 37% 30.19 in 10.0 mi NNW 8.1 mph - N/A   Scattered Clouds
12:30 PM 38.3 °F 31.9 °F 14.5 °F 38% 30.19 in 10.0 mi NW 9.2 mph - N/A   Scattered Clouds
12:50 PM 39.2 °F 35.0 °F 16.3 °F 40% 30.18 in 10.0 mi NNW 5.8 mph 16.1 mph N/A   Scattered Clouds
1:10 PM 40.6 °F 34.3 °F 15.3 °F 36% 30.18 in 10.0 mi NW 10.4 mph 16.1 mph N/A   Scattered Clouds
1:30 PM 40.3 °F 34.9 °F 14.5 °F 35% 30.18 in 10.0 mi NW 8.1 mph 23.0 mph N/A   Clear
1:50 PM 40.1 °F 35.3 °F 12.9 °F 33% 30.18 in 10.0 mi WNW 6.9 mph 16.1 mph N/A   Clear
2:10 PM 40.8 °F 37.8 °F 11.3 °F 30% 30.17 in 10.0 mi WNW 4.6 mph - N/A   Clear
2:30 PM 41.5 °F 36.4 °F 12.0 °F 30% 30.17 in 10.0 mi WNW 8.1 mph 16.1 mph N/A   Clear
2:50 PM 42.4 °F 38.1 °F 11.8 °F 29% 30.17 in 10.0 mi NNW 6.9 mph 18.4 mph N/A   Clear
3:10 PM 43.2 °F 39.7 °F 13.1 °F 30% 30.17 in 10.0 mi West 5.8 mph - N/A   Clear
3:30 PM 42.8 °F 38.6 °F 14.9 °F 32% 30.17 in 10.0 mi WSW 6.9 mph - N/A   Clear
3:50 PM 43.7 °F 39.1 °F 13.5 °F 29% 30.17 in 10.0 mi West 8.1 mph - N/A   Clear
4:10 PM 43.2 °F 41.5 °F 13.1 °F 30% 30.17 in 10.0 mi SW 3.5 mph - N/A   Clear
4:30 PM 43.9 °F 42.3 °F 13.5 °F 29% 30.17 in 10.0 mi WSW 3.5 mph 20.7 mph N/A   Clear
4:50 PM 43.9 °F 39.9 °F 12.9 °F 29% 30.17 in 10.0 mi WNW 6.9 mph - N/A   Clear
5:10 PM 43.9 °F 39.9 °F 12.4 °F 28% 30.19 in 10.0 mi WNW 6.9 mph - N/A   Clear
5:30 PM 43.7 °F 39.7 °F 12.9 °F 29% 30.19 in 10.0 mi West 6.9 mph - N/A   Clear
5:50 PM 43.0 °F 39.5 °F 11.1 °F 27% 30.19 in 10.0 mi WNW 5.8 mph - N/A   Clear
6:10 PM 42.4 °F 38.1 °F 10.4 °F 27% 30.21 in 10.0 mi NW 6.9 mph - N/A   Clear
6:30 PM 41.9 °F 39.0 °F 10.2 °F 27% 30.22 in 10.0 mi WNW 4.6 mph - N/A   Clear
6:55 PM 41.2 °F - 9.1 °F 27% 30.24 in 10.0 mi Calm Calm - N/A   Clear
7:10 PM 40.6 °F - 9.3 °F 28% 30.24 in 10.0 mi Calm Calm - N/A   Clear
7:30 PM 38.8 °F - 11.1 °F 32% 30.25 in 10.0 mi Calm Calm - N/A   Clear
7:50 PM 38.3 °F - 11.5 °F 33% 30.26 in 10.0 mi Calm Calm - N/A   Clear
8:10 PM 34.7 °F - 13.5 °F 42% 30.26 in 10.0 mi Calm Calm - N/A   Clear
8:30 PM 34.9 °F - 16.7 °F 48% 30.27 in 10.0 mi Calm Calm - N/A   Clear
8:50 PM 32.2 °F - 16.3 °F 52% 30.29 in 10.0 mi Calm Calm - N/A   Clear
9:10 PM 32.0 °F - 18.1 °F 57% 30.29 in 10.0 mi Calm Calm - N/A   Clear
9:30 PM 29.7 °F 24.7 °F 19.8 °F 67% 30.31 in 10.0 mi SSE 4.6 mph - N/A   Clear
9:50 PM 30.6 °F - 18.3 °F 60% 30.31 in 10.0 mi Calm Calm - N/A   Clear
10:10 PM 29.1 °F - 18.9 °F 66% 30.31 in 10.0 mi Calm Calm - N/A   Clear
10:30 PM 27.0 °F - 20.7 °F 77% 30.32 in 10.0 mi Calm Calm - N/A   Clear
10:50 PM 28.0 °F - 19.0 °F 69% 30.32 in 10.0 mi Calm Calm - N/A   Clear
11:10 PM 27.1 °F - 19.8 °F 74% 30.33 in 10.0 mi Calm Calm - N/A   Clear
11:30 PM 26.6 °F - 19.2 °F 74% 30.34 in 10.0 mi Calm Calm - N/A   Clear
11:50 PM 25.7 °F - 18.7 °F 75% 30.35 in 10.0 mi Calm Calm - N/A   Clear